Grand Forks, ND

10:05 AM CDT on June 23, 2017 (GMT -0500)
Grand Forks International

Weather History for KGFK - June, 2012

Change the Weather History Date:

Friday, June 8, 2012

  Actual Average Record
Temperature  
Mean Temperature 70 °F 62 °F  
Max Temperature 80 °F 74 °F 96 °F (1970)
Min Temperature 59 °F 50 °F 34 °F (1941)
Degree Days  
Heating Degree Days 0 5  
Month to date heating degree days 11 44  
Since 1 June heating degree days 11 44  
Since 1 July heating degree days 7487 9456  
Cooling Degree Days 5 2  
Month to date cooling degree days 32 12  
Year to date cooling degree days 54 29  
Since 1 June cooling degree days 32 12  
Growing Degree Days 21 (Base 50)    
Moisture  
Dew Point 61 °F    
Average Humidity 71    
Maximum Humidity 93    
Minimum Humidity 48    
Precipitation  
Precipitation 0.00 in 0.10 in 2.41 in (1964)
Month to date precipitation 0.78 0.84  
Year to date precipitation 6.62 6.56  
Snow  
Snow 0.00 in 0.00 in - ()
Month to date snowfall 0.0 0.0  
Since 1 June snowfall 0.0 0.0  
Since 1 July snowfall 22.8 47.4  
Snow Depth 0.00 in    
Sea Level Pressure  
Sea Level Pressure 29.74 in    
Wind  
Wind Speed 9 mph (WSW)    
Max Wind Speed 17 mph    
Max Gust Speed 24 mph    
Visibility 10 miles    
Events      
T = Trace of Precipitation, MM = Missing Value Source: NWS Daily Summary

Daily Weather History Graph

Daily Weather History Graph

Search for Another Location

Airport or City:

Trip Planner

Search our weather history database for the weather conditions in past years. The results will help you decide how hot, cold, wet, or windy it might be!

Date:

Astronomy

Jun. 08, 2012 Rise Set
Actual Time 5:29 AM CDT 9:26 PM CDT
Civil Twilight 4:49 AM CDT 10:06 PM CDT
Nautical Twilight 3:53 AM CDT 11:03 PM CDT
Astronomical Twilight 2:25 AM CDT 12:32 AM CDT
Moon 12:02 AM CDT (6/8) 10:27 AM CDT (6/8)
Length of Visible Light 17h 17m
Length of Day
15h 56m
Waning Gibbous, 77% of the Moon is Illuminated
Jun 8
Waning Gibbous
Jun 11
Last Quarter
Jun 19
New
Jun 26
First Quarter
Jul 3
Full

Hourly Weather History & Observations

Time (CDT) Temp. Heat Index Dew Point Humidity Pressure Visibility Wind Dir Wind Speed Gust Speed Precip Events Conditions
1:53 AM 64.0 °F - 61.0 °F 90% 29.77 in 10.0 mi NNE 8.1 mph - N/A   Mostly Cloudy
2:53 AM 66.0 °F - 61.0 °F 84% 29.74 in 10.0 mi ENE 10.4 mph - N/A   Partly Cloudy
4:53 AM 63.0 °F - 61.0 °F 93% 29.73 in 10.0 mi WSW 6.9 mph - N/A   Mostly Cloudy
5:21 AM 62.6 °F - 60.8 °F 94% 29.73 in 10.0 mi WSW 4.6 mph - N/A   Mostly Cloudy
5:45 AM 62.6 °F - 60.8 °F 94% 29.73 in 10.0 mi WSW 6.9 mph - N/A   Mostly Cloudy
5:53 AM 63.0 °F - 61.0 °F 93% 29.73 in 10.0 mi WSW 6.9 mph - N/A   Mostly Cloudy
6:53 AM 66.0 °F - 62.1 °F 87% 29.76 in 10.0 mi West 15.0 mph - N/A   Mostly Cloudy
8:05 AM 64.4 °F - 60.8 °F 88% 29.78 in 10.0 mi WSW 12.7 mph - N/A   Overcast
8:48 AM 64.4 °F - 60.8 °F 88% 29.78 in 10.0 mi WSW 11.5 mph - N/A   Overcast
8:53 AM 64.9 °F - 60.1 °F 84% 29.78 in 10.0 mi WSW 9.2 mph - N/A   Overcast
9:53 AM 66.9 °F - 59.0 °F 76% 29.77 in 10.0 mi SW 12.7 mph - N/A   Overcast
10:53 AM 71.1 °F - 60.1 °F 68% 29.76 in 10.0 mi WSW 16.1 mph - N/A   Mostly Cloudy
11:53 AM 73.0 °F - 61.0 °F 66% 29.75 in 10.0 mi WSW 12.7 mph 19.6 mph N/A   Scattered Clouds
12:53 PM 73.9 °F - 62.1 °F 66% 29.74 in 10.0 mi West 13.8 mph 21.9 mph N/A   Mostly Cloudy
1:53 PM 77.0 °F - 62.1 °F 60% 29.73 in 10.0 mi WSW 12.7 mph 21.9 mph N/A   Scattered Clouds
2:53 PM 77.0 °F - 62.1 °F 60% 29.71 in 10.0 mi WSW 12.7 mph - N/A   Partly Cloudy
3:53 PM 79.0 °F - 61.0 °F 54% 29.70 in 10.0 mi WSW 13.8 mph 19.6 mph N/A   Partly Cloudy
4:53 PM 80.1 °F 80.7 °F 59.0 °F 48% 29.68 in 10.0 mi West 10.4 mph - N/A   Scattered Clouds
6:53 PM 79.0 °F - 57.9 °F 48% 29.67 in 10.0 mi WNW 8.1 mph - N/A   Scattered Clouds
11:53 PM 62.1 °F - 57.9 °F 86% 29.66 in 10.0 mi NNW 3.5 mph - N/A   Scattered Clouds